Regional Weather Roundup
Issued by NWS Sioux Falls, SD

Home | Current Version | Previous Version | Graphics & Text | Print | Product List | Glossary Off
Versions: 1 2 3 4 5 6 7 8 9 10 11 12 13 14 15 16 17 18 19 20 21 22 23 24 25 26 27 28 29 30 31 32 33 34 35 36 37 38 39 40 41 42 43 44 45 46 47 48 49 50

000
ASUS43 KFSD 061910
RWRFSD

WEATHER ROUNDUP FOR SE SOUTH DAKOTA/SW MINNESOTA/NW IOWA
NATIONAL WEATHER SERVICE SIOUX FALLS SD
100 PM CST SAT FEB 06 2016

NOTE: "FAIR" INDICATES FEW OR NO CLOUDS BELOW 12,000 FEET WITH NO
SIGNIFICANT WEATHER AND OR OBSTRUCTIONS TO VISIBILITY.


SDZ038>040-050-052>070-062000-
SOUTHEAST SOUTH DAKOTA

CITY           SKY/WX    TMP DP  RH WIND       PRES   REMARKS
BROOKINGS      MOSUNNY   36  25  64 S17       29.91F
CHAMBERLAIN    CLOUDY    42  31  66 SW10      29.92F
HURON          CLOUDY    38  28  67 S12       29.90F
MADISON        FAIR      32  32 100 SW15      29.94F WCI  22
MITCHELL       MOSUNNY   39  29  67 S10       29.96F
SIOUX FALLS    PTSUNNY   32  23  69 SW13      29.99F WCI  22
WINNER         FAIR      44  28  53 SW14      29.93F
YANKTON        MOSUNNY   37  23  56 SW10      30.00F
$$

MNZ071-072-080-081-089-090-097-098-062000-
SOUTHWEST MINNESOTA

CITY           SKY/WX    TMP DP  RH WIND       PRES   REMARKS
FAIRMONT       SUNNY     30  25  80 SW16      30.04F WCI  19
JACKSON        SUNNY     32  27  80 S18G25    30.02F WCI  20
LUVERNE        CLOUDY    30  28  93 S7        30.01F WCI  23
MARSHALL       MOSUNNY   37  24  59 SW23G31   29.90F
MONTEVIDEO     CLOUDY    39  27  60 SW16      29.91F
PIPESTONE        N/A     34  21  60 SW17      29.95F WCI  23
REDWOOD FALLS  MOSUNNY   34  26  72 SW18      29.95F WCI  23
TRACY          CLOUDY    35  25  68 SW24G32   29.94F WCI  23
WINDOM         CLOUDY    32  27  80 S18       29.99F WCI  20
WORTHINGTON    CLOUDY    28  23  80 SW20      30.01F WCI  15
$$

IAZ001>003-012>014-020>022-031-032-NEZ013-014-SDZ071-062000-
NORTHWEST IOWA

CITY           SKY/WX    TMP DP  RH WIND       PRES   REMARKS
CHEROKEE       MOSUNNY   35  28  78 S14       30.09F WCI  25
DENISON        SUNNY     32  28  86 SW13      30.11F WCI  22
ESTHERVILLE    SUNNY     30  27  88 SW20      30.04F WCI  17
LE MARS        SUNNY     32  30  93 S14       30.07F WCI  22
ORANGE CITY    SUNNY     28  28 100 S13       30.04F WCI  18
SHELDON        MOSUNNY   30  27  86 S16       30.02F WCI  19
SIOUX CITY     CLOUDY    36  26  67 S12       30.09F
SPENCER        SUNNY     32  27  81 S14       30.05F WCI  22
STORM LAKE     SUNNY     30  30 100 SW16      30.09F WCI  19
$$

ABBREVIATIONS USED IN REMARKS
   TC - TEMPERATURE IN CELSIUS
  WCI - WIND CHILL INDEX
   HX - HEAT INDEX
  VSB - VISIBILITY




USA.gov is the U.S. government's official web portal to all federal, state and local government web resources and services.